Weather in Khankendi

Azerbaijan     39°49′03″N   46°45′03″E
temp.,
°C
wind,
m/s
gust,
m/s
humid.,
%
clouds,
%
prec.,
mm/h
press.,
hPa
HPBL,
m
12 april, mon
mon1201:00+7sw22880 0.0 101617
04:00+7sw33846 0.0 101524
07:00+7ssw22814 0.0 101620
10:00+14e13491 0.0 10141195
13:00+16se27320 0.0 10131982
16:00+17ese38340 0.0 10132412
19:00+11ese33800 0.6 1016114
22:00+8ese11900 1.6 101818
13 april, tue
tue1301:00+6n2293100 0.1 101916
04:00+6nw119898 0.1 101926
07:00+6wnw119467 0.0 102094
10:00+11nne227034 0.0 1019758
13:00+14ne446132 0.0 10181078
16:00+13ene436798 0.4 1017927
19:00+9se128695 3.1 1017138
22:00+8se129123 3.4 101752
14 april, wed
wed1401:00+6sw119410 0.8 101512
04:00+6sw22910 1.8 101415
07:00+6w11880 0.6 101415
10:00+11n23564 1.0 10141083
13:00+14ese153594 0.1 10122634
16:00+14sw263591 0.5 10122380
19:00+10ene12634 0.0 101423
22:00+8ssw22640 0.1 101617
15 april, thu
thu1501:00+6sw45780 0.0 101660
04:00+6ssw34730 0.0 101743
07:00+6sw33690 0.0 101744
10:00+13sw01401 0.0 1015861
13:00+16ene253845 0.0 10132182
16:00+15ene335046 0.1 10121282
19:00+11ene22714 0.3 101459
22:00+9sw227743 0.3 101512
16 april, fri
fri1601:00+9sw2272100 0.0 101418
04:00+8sw2268100 0.0 101412
07:00+9ssw1168100 0.0 101414
10:00+13ene225797 0.0 1014792
13:00+15ne245399 0.4 10121138
16:00+14nne436498 1.6 1012644
19:00+10nne228070 1.9 1015143
22:00+8sw22867 2.9 101718